Location: Snead
(33.5657°N, 82.1207°W)
Time: 20:40:06
(UTC+00:00)

LilacSat-2 - Visible Passes

Search period start: 19 September 2024 00:00
Search period end: 29 September 2024 00:00
Orbit: 470 x 486 km, 97.5° (Epoch: 19 September)

Date Brightness Start Highest point End Pass type
(mag) Time Alt. Az. Time Alt. Az. Time Alt. Az.
19 Sep ? 00:02:57 10° SSW 00:05:43 22° W 00:08:30 10° NW visible
22 Sep ? 00:18:04 10° SW 00:20:01 14° W 00:21:57 10° WNW visible
22 Sep ? 23:50:19 10° SSW 23:53:29 32° W 23:56:41 10° NNW visible
26 Sep ? 00:04:41 10° SSW 00:07:24 21° W 00:10:09 10° NW visible
26 Sep ? 23:37:24 10° S 23:40:49 52° W 23:44:16 10° NNW visible
